Regional Weather Roundup
Issued by NWS

Home | Current Version | Previous Version | Graphics & Text | Print | Product List | Glossary On
Versions: 1 2 3 4 5 6 7 8 9 10 11 12 13 14 15 16 17 18 19 20 21 22 23 24 25 26 27 28 29 30 31 32 33 34 35 36 37 38 39 40 41 42 43 44 45 46 47 48 49 50
000
ASUS43 KLMK 212302
RWRKY
KENTUCKY REGIONAL WEATHER ROUNDUP
NATIONAL WEATHER SERVICE LOUISVILLE KY
600 PM EST SUN DEC 21 2014

NOTE "FAIR" INDICATES FEW OR NO CLOUDS BELOW 12,000 FEET
WITH NO SIGNIFICANT WEATHER AND/OR OBSTRUCTIONS TO VISIBILITY.

KYZ001>023-026-027-061>063-070>075-220000-
WESTERN AND SOUTH CENTRAL KENTUCKY

CITY           SKY/WX    TMP DP  RH WIND       PRES   REMARKS
PADUCAH        CLEAR     45  31  58 E5        30.06S
HENDERSON      CLEAR     37  27  65 E3        30.10R
OWENSBORO      CLEAR     42  29  60 E7        30.11S
HOPKINSVILLE   PTCLDY    44  31  60 NE3       30.07F
BOWLING GREEN  PTCLDY    42  28  57 NE6       30.10S
GLASGOW        NOT AVBL
$$

KYZ024-025-028>034-038-045-046-053-220000-
NORTH CENTRAL KENTUCKY

CITY           SKY/WX    TMP DP  RH WIND       PRES   REMARKS
LOUISVILLE/SDF MOCLDY    39  29  67 E6        30.13F WCI  35
LOUISVILLE/LOU MOCLDY    40  28  62 E5        30.14F
FORT KNOX      PTCLDY    37  28  69 NE7       30.10F WCI  32
$$

KYZ035>037-039>044-047>052-055>060-089>105-220000-
NORTHEAST KENTUCKY

CITY           SKY/WX    TMP DP  RH WIND       PRES   REMARKS
LEXINGTON      PTCLDY    34  27  75 E7        30.14F WCI  28
COVINGTON      MOCLDY    32  24  72 E6        30.16F WCI  26
FRANKFORT      PTCLDY    34  27  75 E6        30.14S WCI  29
$$

KYZ054-064>069-076>088-106>120-220000-
SOUTHEAST KENTUCKY

CITY           SKY/WX    TMP DP  RH WIND       PRES   REMARKS
JACKSON        CLEAR     39  25  57 NE5       30.13R
LONDON         CLEAR     43  28  55 N5        30.11F
SOMERSET       NOT AVBL
MIDDLESBORO    MOCLDY    42  34  75 CALM      30.12S
MONTICELLO     CLEAR     39  29  68 E5        30.12F
$$




USA.gov is the U.S. government's official web portal to all federal, state and local government web resources and services.